Maryland Science Center, MD

7:29 PM EST on December 07, 2019 (GMT -0500)
Maryland Science Center

Weather History for KDMH - October, 2019

Change the Weather History Date:

Tuesday, October 8, 2019

  Actual Average Record
Temperature  
Mean Temperature 64 °F 63 °F  
Max Temperature 68 °F 71 °F 93 °F (2007)
Min Temperature 60 °F 54 °F 39 °F (2001)
Degree Days  
Heating Degree Days 1 4  
Month to date heating degree days 8 27  
Since 1 July heating degree days 8 45  
Cooling Degree Days 0 2  
Month to date cooling degree days 55 20  
Year to date cooling degree days 2044 1645  
Growing Degree Days 14 (Base 50)    
Moisture  
Dew Point 49 °F    
Average Humidity 63    
Maximum Humidity 84    
Minimum Humidity 42    
Precipitation  
Precipitation 0.00 in 0.11 in 4.95 in (2005)
Month to date precipitation 0.11 0.89  
Year to date precipitation 30.98 32.35  
Sea Level Pressure  
Sea Level Pressure 30.20 in    
Wind  
Wind Speed - (North)    
Max Wind Speed -    
Max Gust Speed -    
T = Trace of Precipitation, MM = Missing Value Source: NWS Daily Summary

Daily Weather History Graph

Daily Weather History Graph

Search for Another Location

Airport or City:

Astronomy

Oct. 08, 2019 Rise Set
Actual Time 7:09 AM EDT 6:38 PM EDT
Civil Twilight 6:42 AM EDT 7:05 PM EDT
Nautical Twilight 6:11 AM EDT 7:36 PM EDT
Astronomical Twilight 5:40 AM EDT 8:07 PM EDT
Moon 4:33 PM EDT 1:58 AM EDT
Length of Visible Light 12h 23m
Length of Day
11h 29m
Waxing Gibbous, 77% of the Moon is Illuminated
Oct 8
Waxing Gibbous
Oct 13
Full
Oct 21
Last Quarter
Oct 27
New
Nov 4
First Quarter

Hourly Weather History & Observations

Time (EDT) Temp. Dew Point Humidity Pressure Visibility Wind Dir Wind Speed Gust Speed Precip Events Conditions
12:54 AM 61.0 °F 55.9 °F 83% 30.19 in - North - - N/A   Unknown
1:54 AM 61.0 °F 55.9 °F 83% 30.19 in - North - - N/A   Unknown
2:54 AM 61.0 °F 55.9 °F 83% 30.19 in - North - - N/A   Unknown
3:54 AM 61.0 °F 54.0 °F 78% 30.17 in - North - - N/A   Unknown
5:54 AM 61.0 °F 52.0 °F 72% 30.20 in - North - - N/A   Unknown
7:54 AM 60.1 °F 50.0 °F 69% 30.22 in - North - - N/A   Unknown
8:54 AM 61.0 °F 51.1 °F 70% 30.22 in - North - - N/A   Unknown
10:54 AM 63.0 °F 51.1 °F 65% 30.25 in - North - - N/A   Unknown
11:54 AM 63.0 °F 50.0 °F 63% 30.23 in - North - - N/A   Unknown
12:54 PM 64.9 °F 46.9 °F 52% 30.21 in - North - - N/A   Unknown
1:54 PM 66.0 °F 46.0 °F 48% 30.19 in - North - - N/A   Unknown
2:54 PM 66.9 °F 45.0 °F 45% 30.18 in - North - - N/A   Unknown
3:54 PM 68.0 °F 45.0 °F 43% 30.17 in - North - - N/A   Unknown
4:54 PM 68.0 °F 46.0 °F 45% 30.17 in - North - - N/A   Unknown
5:54 PM 68.0 °F 46.0 °F 45% 30.17 in - North - - N/A   Unknown
6:54 PM 66.9 °F 46.0 °F 47% 30.18 in - North - - N/A   Unknown
7:54 PM 66.0 °F 46.9 °F 50% 30.19 in - North - - N/A   Unknown
8:54 PM 64.9 °F 46.0 °F 50% 30.21 in - North - - N/A   Unknown
10:54 PM 63.0 °F 44.1 °F 50% 30.21 in - North - - N/A   Unknown
11:54 PM 63.0 °F 43.0 °F 48% 30.21 in - North - - N/A   Unknown